Location: Kervinic
(48.4279°N, 4.7373°W)
Time: 17:17:59
(UTC+00:00)

Iridium 2 - Pass Details

Date: 09 April 2020
Orbit: 502 x 518 km, 85.5° (Epoch: 28 May)

Event Time Altitude Azimuth Distance (km) Brightness Sun altitude
Exits shadow 21:08:14 31° 195° (SSW) 922 4.7 -19.6°
Maximum altitude 21:09:57 76° 274° (W) 539 3.8 -19.8°
Drops below altitude 10° 21:13:48 10° 2° (N) 1,761 6.9 -20.3°
Sets 21:15:57 0° 4° (N) 2,655 7.8 -20.6°
